Change the Weather History Date:

Sunday, January 29, 2012

  Actual Average Record
Temperature  
Mean Temperature 30 °F 24 °F  
Max Temperature 35 °F 31 °F 59 °F (1914)
Min Temperature 25 °F 18 °F -7 °F (1977)
Degree Days  
Heating Degree Days 35 41  
Month to date heating degree days 1009 1167  
Since 1 July heating degree days 2934 3582  
Cooling Degree Days 0 0  
Month to date cooling degree days 0 0  
Year to date cooling degree days 0 0  
Moisture  
Dew Point 25 °F    
Average Humidity 71    
Maximum Humidity 92    
Minimum Humidity 49    
Precipitation  
Precipitation 0.22 in 0.09 in 0.99 in (2006)
Month to date precipitation 4.41 3.00  
Year to date precipitation 4.41 3.00  
Snow  
Snow 4.40 in 0.70 in 4.40 in (2012)
Month to date snowfall 20.7 23.8  
Since 1 July snowfall 24.5 60.0  
Snow Depth T in    
Sea Level Pressure  
Sea Level Pressure 29.95 in    
Wind  
Wind Speed 15 mph (WSW)    
Max Wind Speed 32 mph    
Max Gust Speed 45 mph    
Visibility 4 miles    
Events Fog , Snow    
T = Trace of Precipitation, MM = Missing Value Source: NWS Daily Summary

Daily Weather History Graph

Daily Weather History Graph

Search for Another Location

Airport or City:

Trip Planner

Search our weather history database for the weather conditions in past years. The results will help you decide how hot, cold, wet, or windy it might be!

Date:

Astronomy

Jan. 29, 2012 Rise Set
Actual Time 7:33 AM EST 5:23 PM EST
Civil Twilight 7:03 AM EST 5:53 PM EST
Nautical Twilight 6:28 AM EST 6:27 PM EST
Astronomical Twilight 5:55 AM EST 7:01 PM EST
Moon 10:12 AM EST (1/29) No Moon Set
Length of Visible Light 10h 50m
Length of Day
9h 49m
Waxing Crescent, 36% of the Moon is Illuminated
Jan 29
Waxing Crescent
Jan 30
First Quarter
Feb 7
Full
Feb 14
Last Quarter
Feb 21
New

Hourly Weather History & Observations

Time (EST) Temp. Windchill Dew Point Humidity Pressure Visibility Wind Dir Wind Speed Gust Speed Precip Events Conditions
12:54 AM 30.9 °F 18.7 °F 15.1 °F 52% 30.01 in 9.0 mi West 19.6 mph 34.5 mph 0.00 in Snow Light Snow
1:54 AM 30.9 °F 18.1 °F 17.1 °F 57% 30.00 in 10.0 mi West 21.9 mph 32.2 mph 0.00 in   Mostly Cloudy
2:54 AM 30.9 °F 19.1 °F 16.0 °F 54% 30.02 in 10.0 mi West 18.4 mph 31.1 mph 0.00 in   Mostly Cloudy
3:54 AM 30.9 °F 18.7 °F 18.0 °F 59% 30.02 in 10.0 mi WSW 19.6 mph 26.5 mph 0.00 in Snow Light Snow
4:54 AM 30.0 °F 18.7 °F 16.0 °F 56% 30.01 in 9.0 mi WSW 16.1 mph 27.6 mph 0.00 in   Scattered Clouds
5:54 AM 30.0 °F 18.3 °F 18.0 °F 61% 30.01 in 10.0 mi West 17.3 mph 27.6 mph 0.00 in   Scattered Clouds
6:45 AM 30.2 °F 17.8 °F 21.2 °F 69% 29.99 in 6.0 mi West 19.6 mph 24.2 mph 0.00 in Snow Light Snow
6:54 AM 30.0 °F 17.2 °F 24.1 °F 79% 30.01 in 6.0 mi WSW 20.7 mph 27.6 mph 0.00 in Snow Light Snow
6:58 AM 30.2 °F 17.8 °F 24.8 °F 80% 29.99 in 1.8 mi SW 19.6 mph 27.6 mph 0.00 in Snow Light Snow
7:24 AM 28.4 °F 17.5 °F 26.6 °F 93% 29.99 in 1.5 mi SW 13.8 mph 19.6 mph 0.02 in Snow Light Snow
7:34 AM 28.4 °F 16.2 °F 26.6 °F 93% 29.99 in 0.5 mi SW 17.3 mph 26.5 mph 0.02 in Snow Light Snow
7:54 AM 28.9 °F 16.1 °F 26.1 °F 89% 30.02 in 0.5 mi SW 19.6 mph 25.3 mph 0.02 in Fog , Snow Snow
7:58 AM 28.4 °F 16.2 °F 26.6 °F 93% 29.99 in 0.5 mi SW 17.3 mph 25.3 mph 0.00 in Fog , Snow Snow
8:25 AM 28.4 °F 17.0 °F 24.8 °F 86% 29.98 in 2.0 mi SSW 15.0 mph - 0.01 in Snow Light Snow
8:32 AM 28.4 °F 18.0 °F 24.8 °F 86% 29.98 in 4.0 mi SW 12.7 mph - 0.01 in Snow Light Snow
8:54 AM 30.0 °F 18.7 °F 21.9 °F 72% 30.01 in 3.0 mi SW 16.1 mph 23.0 mph 0.01 in Snow Light Snow
9:27 AM 32.0 °F 19.2 °F 23.0 °F 69% 29.97 in 2.0 mi WSW 23.0 mph 29.9 mph 0.00 in Snow Light Snow
9:40 AM 32.0 °F 20.5 °F 23.0 °F 69% 29.97 in 5.0 mi WSW 18.4 mph 27.6 mph 0.00 in Snow Light Snow
9:54 AM 30.9 °F 19.1 °F 24.1 °F 76% 30.00 in 4.0 mi WSW 18.4 mph 28.8 mph 0.00 in Snow Light Snow
10:22 AM 32.0 °F 20.5 °F 23.0 °F 69% 29.97 in 2.0 mi SW 18.4 mph 26.5 mph 0.00 in Snow Light Snow
10:30 AM 32.0 °F 19.2 °F 21.2 °F 64% 29.97 in 8.0 mi SW 23.0 mph 29.9 mph 0.00 in Snow Light Snow
10:54 AM 32.0 °F 20.1 °F 24.1 °F 73% 29.99 in 1.5 mi WSW 19.6 mph 32.2 mph 0.00 in Snow Light Snow
11:06 AM 32.0 °F 20.5 °F 26.6 °F 80% 29.97 in 3.0 mi SW 18.4 mph 31.1 mph 0.00 in Snow Light Snow
11:25 AM 32.0 °F 20.8 °F 24.8 °F 75% 29.96 in 1.0 mi WSW 17.3 mph 33.4 mph 0.00 in Snow Light Snow
11:54 AM 32.0 °F 20.5 °F 26.1 °F 79% 29.99 in 3.0 mi WSW 18.4 mph 26.5 mph 0.00 in Snow Light Snow
12:19 PM 33.8 °F 22.8 °F 26.6 °F 75% 29.95 in 3.0 mi WSW 18.4 mph - 0.00 in Snow Light Snow
12:54 PM 34.0 °F 23.4 °F 27.0 °F 75% 29.96 in 10.0 mi WSW 17.3 mph 27.6 mph 0.00 in   Mostly Cloudy
1:54 PM 34.0 °F 23.4 °F 26.1 °F 73% 29.94 in 10.0 mi WSW 17.3 mph 24.2 mph N/A   Overcast
2:05 PM 33.8 °F 23.9 °F 26.6 °F 75% 29.92 in 2.0 mi WSW 15.0 mph 25.3 mph 0.00 in Snow Light Snow
2:21 PM 32.0 °F 22.1 °F 26.6 °F 80% 29.91 in 0.5 mi WSW 13.8 mph 23.0 mph 0.00 in Snow Snow
2:24 PM 32.0 °F 21.6 °F 28.4 °F 87% 29.91 in 0.5 mi WSW 15.0 mph 24.2 mph 0.00 in Snow Snow
2:33 PM 32.0 °F 22.1 °F 28.4 °F 87% 29.90 in 3.0 mi WSW 13.8 mph - 0.00 in Snow Light Snow
2:54 PM 33.1 °F 24.9 °F 27.0 °F 78% 29.92 in 10.0 mi WSW 10.4 mph - 0.00 in   Overcast
3:54 PM 35.1 °F 28.6 °F 24.1 °F 64% 29.90 in 10.0 mi WSW 8.1 mph - N/A   Overcast
4:50 PM 33.8 °F 26.4 °F 24.8 °F 70% 29.87 in 2.0 mi West 9.2 mph - 0.00 in Snow Light Snow
4:51 PM 33.8 °F 26.4 °F 24.8 °F 70% 29.87 in 1.5 mi WSW 9.2 mph - 0.00 in Snow Light Snow
4:54 PM 33.1 °F 25.5 °F 25.0 °F 72% 29.90 in 1.0 mi West 9.2 mph - 0.00 in Snow Light Snow
5:04 PM 32.0 °F 24.2 °F 26.6 °F 80% 29.88 in 0.5 mi WSW 9.2 mph - 0.00 in Snow Snow
5:22 PM 30.2 °F 24.3 °F 28.4 °F 93% 29.89 in 0.5 mi WSW 5.8 mph - 0.01 in Fog , Snow Snow
5:54 PM 30.9 °F 25.2 °F 28.9 °F 92% 29.92 in 0.5 mi West 5.8 mph - 0.06 in Fog , Snow Snow
6:25 PM 32.0 °F 24.2 °F 30.2 °F 93% 29.89 in 1.2 mi West 9.2 mph - 0.04 in Snow Light Snow
6:38 PM 32.0 °F 24.8 °F 30.2 °F 93% 29.89 in 4.0 mi West 8.1 mph - 0.04 in Snow Light Snow
6:54 PM 32.0 °F 22.1 °F 30.0 °F 92% 29.93 in 1.0 mi WSW 13.8 mph - 0.04 in Snow Light Snow
7:20 PM 33.8 °F 23.2 °F 30.2 °F 87% 29.90 in 2.0 mi West 17.3 mph 23.0 mph 0.01 in Snow Light Snow
7:29 PM 33.8 °F 24.3 °F 28.4 °F 81% 29.90 in 4.0 mi WSW 13.8 mph 23.0 mph 0.01 in Snow Light Snow
7:38 PM 33.8 °F 24.3 °F 28.4 °F 81% 29.90 in 7.0 mi WSW 13.8 mph - 0.01 in Snow Light Snow
7:54 PM 33.1 °F 22.6 °F 28.0 °F 82% 29.93 in 7.0 mi WSW 16.1 mph 24.2 mph 0.01 in Snow Light Snow
8:06 PM 32.0 °F 21.6 °F 28.4 °F 87% 29.91 in 2.0 mi WSW 15.0 mph - 0.00 in Snow Light Snow
8:10 PM 32.0 °F 21.2 °F 28.4 °F 87% 29.91 in 1.0 mi WSW 16.1 mph 21.9 mph 0.00 in Snow Light Snow
8:23 PM 30.2 °F 18.5 °F 28.4 °F 93% 29.91 in 0.5 mi West 17.3 mph 23.0 mph 0.00 in Fog , Snow Snow
8:42 PM 30.2 °F 20.2 °F 28.4 °F 93% 29.91 in 0.5 mi WSW 12.7 mph - 0.02 in Fog , Snow Snow
8:54 PM 30.9 °F 23.5 °F 28.9 °F 92% 29.94 in 0.2 mi West 8.1 mph - 0.03 in Fog , Snow Heavy Snow
9:22 PM 30.2 °F 19.8 °F 28.4 °F 93% 29.93 in 1.5 mi NNW 13.8 mph - N/A Snow Light Snow
9:29 PM 30.2 °F 19.3 °F 28.4 °F 93% 29.94 in 3.0 mi NW 15.0 mph 20.7 mph N/A Snow Light Snow
9:54 PM 30.0 °F 17.9 °F 26.1 °F 85% 29.99 in 2.5 mi NNW 18.4 mph 26.5 mph 0.05 in Snow Light Snow
10:16 PM 28.4 °F 17.5 °F 23.0 °F 80% 29.98 in 5.0 mi NNW 13.8 mph 26.5 mph 0.00 in Snow Light Snow
10:54 PM 27.0 °F 17.3 °F 18.0 °F 69% 30.05 in 10.0 mi NW 10.4 mph - 0.00 in   Mostly Cloudy
11:54 PM 24.8 °F 14.6 °F 17.6 °F 74% 30.08 in 10.0 mi West 10.4 mph - N/A   Scattered Clouds